Probability
0 0 0 0 0 0 0 0 0 0 0 0 0 0 0 0 0 0 0 0 0 0 0 0 0 0 0 0 0 0 0 0 0 0 0 0 0 0 0 0 0 0 0
0 0 0 0 0 0 0 0 0 0 0 0 0 0 0 0 0 0 0 0 0 0 0 0 0 0 0 0 0 0 0 0 0 0 0 0 0 0 0 0 0 0 0
1 0 0 0 0 0 0 0 0 0 0 0 0 0 0 0 0 0 0 0 0 0 0 0 0 0 0 0 0 0 0 0 0 0 0 0 0 0 0 0 0 0 0
2 1 0 0 0 0 0 0 0 0 0 0 0 0 0 0 0 0 0 0 0 0 0 0 0 0 0 0 0 0 0 0 0 0 0 0 0 0 0 0 0 0 0
2 1 0 0 0 0 0 0 0 0 0 0 0 0 0 0 0 0 0 0 0 0 0 0 0 0 0 0 0 0 0 0 0 0 0 0 0 0 0 0 0 0 0
3 2 1 1 1 1 1 1 2 1 1 0 0 0 0 0 0 0 0 0 0 0 0 0 0 0 0 0 0 0 0 0 0 0 0 0 0 0 0 0 0 0 0
8 6 4 3 3 3 3 3 3 2 1 0 0 0 0 0 0 0 0 0 0 0 0 0 0 0 0 0 0 0 0 0 0 0 0 0 0 0 0 0 0 0 0
14 12 9 7 6 6 5 4 3 2 1 0 0 0 0 0 0 0 0 0 0 0 0 0 0 0 0 0 0 0 0 0 0 0 0 0 0 0 0 0 0 0 0
17 16 12 9 8 7 6 5 4 1 0 0 0 0 0 0 0 0 0 0 0 0 0 0 0 0 0 0 0 0 0 0 0 0 0 0 0 0 0 0 0 0 0
19 17 13 10 9 8 7 6 4 1 0 0 0 0 0 0 0 0 0 0 0 0 0 0 0 0 0 0 0 0 0 0 0 0 0 0 0 0 0 0 0 0 0
21 18 14 12 11 9 7 5 3 1 0 0 0 0 0 0 0 0 0 0 0 0 0 0 0 0 0 0 0 0 0 0 0 0 0 0 0 0 0 0 0 0 0
22 18 14 14 13 10 8 5 3 1 0 0 0 0 0 0 0 0 0 0 0 0 0 0 0 0 0 0 0 0 0 0 0 0 0 0 0 0 0 0 0 0 0
21 17 14 14 13 12 9 7 4 1 0 0 0 0 0 0 0 0 0 0 0 0 0 0 0 0 0 0 0 0 0 0 0 0 0 0 0 0 0 0 0 0 0
22 17 14 14 13 12 11 9 6 2 0 0 0 0 0 0 0 0 0 0 0 0 0 0 0 0 0 0 0 0 0 0 0 0 0 0 0 0 0 0 0 0 0
26 20 15 15 13 11 10 10 8 4 1 0 0 0 0 0 0 0 0 0 0 0 0 0 0 0 0 0 0 0 0 0 0 0 0 0 0 0 0 0 0 0 0
32 24 18 17 15 12 10 9 7 5 3 1 0 0 0 0 0 0 0 0 0 0 0 0 0 0 0 0 0 0 0 0 0 0 0 0 0 0 0 0 0 0 0
38 30 23 20 18 14 11 9 7 5 4 2 1 0 0 0 0 0 0 0 0 0 0 0 0 0 0 0 0 0 0 0 0 0 0 0 0 0 0 0 0 0 0
43 38 30 25 21 17 13 9 6 4 4 3 1 0 0 0 0 0 0 0 0 0 0 0 0 0 0 0 0 0 0 0 0 0 0 0 0 0 0 0 0 0 0
45 41 34 27 23 19 16 12 8 5 4 2 1 0 0 0 0 0 0 0 0 0 0 0 0 0 0 0 0 0 0 0 0 0 0 0 0 0 0 0 0 0 0
44 41 35 28 22 18 18 16 10 5 3 1 0 0 0 0 0 0 0 0 0 0 0 0 0 0 0 0 0 0 0 0 0 0 0 0 0 0 0 0 0 0 0
42 38 31 26 21 17 17 15 8 3 2 1 1 0 0 0 0 0 0 0 0 0 0 0 0 0 0 0 0 0 0 0 0 0 0 0 0 0 0 0 0 0 0
39 33 25 21 19 16 14 10 5 2 2 1 1 1 0 0 0 0 0 0 0 0 0 0 0 0 0 0 0 0 0 0 0 0 0 0 0 0 0 0 0 0 0
34 28 20 17 16 14 10 7 4 2 2 1 1 1 0 0 0 0 0 0 0 0 0 0 0 0 0 0 0 0 0 0 0 0 0 0 0 0 0 0 0 0 0
27 23 17 13 12 11 8 6 5 3 1 1 1 1 0 0 0 0 0 0 0 0 0 0 0 0 0 0 0 0 0 0 0 0 0 0 0 0 0 0 0 0 0
22 19 14 10 8 8 7 6 5 3 1 0 0 0 0 0 0 0 0 0 0 0 0 0 0 0 0 0 0 0 0 0 0 0 0 0 0 0 0 0 0 0 0
20 17 12 8 7 7 7 6 5 3 1 0 0 0 0 0 0 0 0 0 0 0 0 0 0 0 0 0 0 0 0 0 0 0 0 0 0 0 0 0 0 0 0
Wind_Speed
7 9 16 18 18 18 18 18 17 17 17 17 17 17 17 17 17 16 16 15 15 15 14 14 15 15 15 16 16 17 17 17 18 18 17 17 17 17 17 17 16 12 18
12 11 17 18 18 18 18 18 17 17 17 17 16 16 16 16 16 15 15 15 15 14 14 15 14 15 15 16 16 16 17 17 17 17 17 16 17 17 17 16 15 11 17
15 12 15 17 18 18 18 17 17 16 16 16 16 15 15 15 15 15 15 14 14 14 14 14 14 15 15 15 15 16 16 17 17 17 15 8 11 16 16 16 16 16 16
15 11 13 18 18 18 17 17 16 16 16 15 15 15 14 14 14 14 14 14 14 14 14 14 14 14 14 14 14 14 15 16 16 15 7 6 8 15 16 16 16 15 15
13 10 14 20 19 18 17 17 16 16 15 15 14 14 14 14 13 14 14 14 14 14 14 13 13 13 13 12 12 12 13 13 15 11 6 6 6 14 15 15 15 15 14
12 10 14 19 19 18 17 17 16 16 15 15 14 14 13 13 13 13 13 13 13 13 13 13 12 12 11 11 11 11 12 13 12 7 6 6 5 13 15 15 15 14 14
12 9 12 19 19 18 17 17 16 15 15 14 14 13 13 13 13 13 13 13 13 13 12 12 11 11 10 10 10 10 11 13 8 6 5 5 7 12 14 14 14 14 14
14 10 11 18 19 18 17 17 16 16 15 14 14 13 13 13 12 12 13 13 13 12 11 11 10 10 9 8 8 8 10 12 10 8 6 5 9 12 13 13 13 13 13
13 11 9 10 13 17 17 16 16 15 15 14 13 13 13 13 12 12 12 12 12 11 11 10 9 9 8 7 7 8 9 12 7 5 7 4 9 12 13 13 12 12 12
11 10 9 8 7 8 10 16 16 15 14 14 13 13 13 13 12 12 10 11 11 11 10 9 8 8 6 6 6 8 10 10 5 5 4 5 11 12 13 12 12 12 12
11 8 8 8 7 7 7 12 13 14 14 13 11 13 10 5 5 6 9 11 11 10 9 8 7 6 5 4 6 8 8 3 5 4 3 8 11 12 12 12 11 11 11
12 10 9 9 8 8 8 6 4 5 6 5 5 6 4 4 3 5 8 10 10 9 8 7 5 4 3 2 4 6 3 4 4 3 4 10 11 12 12 12 11 11 11
13 12 10 10 9 8 5 6 3 3 3 4 5 5 4 3 3 3 2 4 4 6 3 3 2 1 1 2 2 3 3 3 2 3 5 11 11 11 11 11 10 10 10
13 12 11 10 9 8 7 6 5 4 3 3 4 5 4 3 3 3 2 2 2 1 2 1 1 1 0 1 3 4 4 3 2 2 5 11 11 11 12 11 11 10 10
13 12 12 10 9 8 7 5 6 5 5 4 4 4 5 4 4 3 2 2 2 2 2 2 2 1 1 2 3 5 5 4 4 4 4 11 11 11 11 11 11 10 10
12 12 10 10 10 9 7 5 5 5 5 4 4 5 6 5 5 4 3 3 2 2 3 3 3 2 2 2 2 5 6 5 5 4 4 6 11 11 11 11 11 11 10
12 11 11 10 9 9 8 7 6 5 5 4 4 5 6 6 6 5 4 3 3 3 3 2 2 2 2 2 2 4 5 5 5 5 5 3 5 9 11 11 11 11 10
12 11 12 11 10 8 7 5 5 5 5 4 4 4 6 6 6 5 4 3 3 2 3 3 2 2 1 2 2 2 3 4 6 6 5 4 3 4 7 11 11 10 11
12 12 10 9 10 8 7 5 4 4 5 4 4 4 5 6 6 5 3 3 3 3 2 3 2 2 2 2 2 2 2 3 5 6 6 6 5 5 4 8 10 11 12
11 11 10 9 9 8 5 4 3 3 3 4 4 4 6 5 6 5 3 3 3 3 2 2 2 2 2 2 2 1 1 2 3 4 6 5 5 6 6 5 5 7 12
9 10 10 9 8 7 5 4 4 4 4 4 4 6 6 5 5 5 4 4 3 3 3 4 3 2 1 2 3 2 2 1 2 3 4 4 6 6 6 6 4 4 5
10 9 9 9 9 8 5 4 4 4 4 4 3 4 6 6 5 5 5 4 4 3 3 3 3 2 1 2 3 2 1 3 3 2 2 4 5 5 6 7 6 6 5
9 10 10 9 9 8 6 4 4 3 3 2 3 3 4 5 5 5 5 4 4 4 3 3 3 4 2 1 2 4 3 3 2 2 2 3 4 4 4 5 7 7 7
9 9 9 8 8 7 7 7 7 6 4 4 4 3 4 4 5 5 5 5 4 3 3 3 3 3 4 2 0 1 2 4 3 1 2 2 3 4 4 5 6 6 6
8 8 8 8 7 7 7 8 7 5 4 3 3 4 4 3 4 5 5 5 4 3 4 3 3 3 3 3 2 1 1 1 2 3 1 2 2 2 3 4 4 4 5
6 7 7 8 7 7 7 7 8 7 6 6 5 5 4 3 3 4 5 5 4 4 4 4 4 4 3 3 2 2 2 2 2 2 2 2 2 2 2 2 3 3 4
Wind_Direction
141 145 139 133 128 123 119 115 111 108 106 104 102 102 102 104 105 107 110 112 113 113 112 111 110 110 110 110 110 111 111 111 111 112 112 112 112 112 110 109 107 107 110
143 145 140 135 131 127 124 120 117 114 111 108 107 106 106 106 108 109 111 113 115 115 115 113 112 112 112 112 113 114 114 113 111 109 109 112 113 112 111 110 109 112 112
136 139 139 136 133 130 128 125 122 119 117 114 112 111 110 110 111 113 114 116 117 117 116 115 114 114 114 114 115 117 116 113 109 107 103 97 108 112 113 113 112 111 112
135 137 139 138 136 134 132 130 128 126 123 120 118 116 115 115 116 117 117 118 118 118 118 118 117 117 116 116 117 118 118 116 113 110 99 98 107 113 113 113 113 113 113
132 135 143 141 139 138 136 135 133 131 129 126 123 122 121 120 120 119 119 121 120 120 120 119 118 118 117 116 117 118 119 118 114 107 97 91 101 116 115 115 115 114 114
132 134 143 142 142 141 139 138 137 135 132 128 127 126 125 124 122 122 123 123 123 122 121 121 120 118 116 115 115 115 117 118 111 104 101 100 106 118 117 117 116 115 115
135 136 142 143 144 143 142 141 140 137 134 132 131 129 127 126 125 124 125 126 126 125 124 123 121 118 116 113 111 110 116 123 114 110 106 104 113 119 119 118 117 117 117
138 137 142 146 146 146 145 144 143 141 137 137 135 133 132 131 130 129 129 130 130 129 127 126 123 118 112 108 104 103 114 125 124 121 113 112 122 122 122 121 122 122 121
139 139 141 146 147 148 147 146 145 143 141 140 139 138 137 137 136 135 134 135 135 133 132 130 126 121 114 106 103 101 114 124 119 124 126 122 128 128 128 126 127 126 126
140 143 142 140 141 142 146 148 147 146 145 145 144 143 142 142 141 140 138 140 139 139 137 135 132 126 117 107 102 102 115 120 119 121 121 135 136 135 133 132 130 129 129
144 147 146 143 141 139 145 152 150 149 151 149 148 147 139 127 130 136 146 147 145 144 143 141 137 132 119 102 101 99 105 109 116 121 130 145 145 142 138 136 136 135 133
156 157 155 151 149 150 154 141 142 144 144 139 138 137 129 133 145 147 156 153 152 150 148 149 147 137 115 89 89 94 99 113 120 134 149 155 152 147 143 142 142 140 137
160 161 162 161 159 160 146 144 142 135 138 143 148 146 143 141 142 133 138 148 148 150 141 150 144 121 114 122 113 118 123 117 131 144 157 160 156 152 150 149 148 147 145
162 165 166 165 162 160 150 153 153 151 155 159 161 156 145 141 141 143 141 144 144 139 148 145 153 181 152 136 132 131 137 135 140 138 163 164 163 160 158 156 156 155 154
166 168 169 165 160 158 152 159 160 164 167 165 161 158 153 153 156 157 157 163 172 161 166 179 190 186 170 154 149 147 153 153 152 156 161 171 169 167 166 165 165 164 164
169 167 165 162 162 158 157 161 163 169 168 163 163 165 162 161 158 157 161 173 184 181 181 186 187 170 164 151 152 150 159 158 163 161 165 177 178 175 174 175 175 174 175
168 165 164 161 161 160 160 165 164 168 165 165 166 166 163 159 157 157 156 170 186 175 165 164 169 142 147 153 146 147 156 166 169 173 174 175 183 186 185 185 185 185 186
163 162 165 164 163 161 157 158 157 161 162 167 161 162 162 159 159 153 154 169 179 163 150 149 147 128 137 148 153 159 156 169 176 180 179 183 187 193 197 195 194 195 197
161 159 161 155 161 161 157 154 150 153 161 163 157 161 164 163 158 151 156 167 166 146 144 158 140 141 151 169 176 168 167 170 181 186 190 194 196 197 197 203 203 203 206
157 156 156 156 159 156 153 142 130 136 158 159 161 167 164 164 158 148 154 166 157 138 137 142 139 136 154 164 164 153 191 191 186 190 197 197 202 204 202 205 206 214 215
154 155 159 159 159 156 156 151 144 154 164 165 172 170 166 165 159 152 160 162 154 154 163 156 136 133 139 125 88 35 345 321 223 205 200 195 204 206 201 205 206 211 220
159 159 161 164 164 167 165 159 155 152 159 167 170 168 171 170 168 166 160 164 159 149 148 150 138 136 136 133 127 108 14 338 318 240 208 201 204 201 204 207 209 212 218
164 166 169 169 167 169 161 141 126 111 102 130 162 169 180 175 173 164 165 163 163 155 162 168 156 146 157 185 150 145 153 215 278 305 244 216 200 197 207 206 211 216 214
171 169 168 169 168 166 160 157 156 160 168 182 175 175 178 174 172 167 165 166 163 162 172 180 162 152 147 164 199 192 174 161 159 272 310 270 220 206 206 210 214 216 211
167 167 167 166 168 167 165 164 162 165 168 162 155 164 173 179 175 171 169 163 165 170 175 171 153 154 156 162 172 178 151 129 139 146 237 291 296 242 215 212 207 209 205
164 166 164 164 170 169 166 166 170 169 163 158 166 172 175 181 181 180 173 170 173 175 181 180 169 164 167 158 159 158 155 160 182 161 187 233 253 270 248 218 212 215 209